Metropolis, IL

8:54 PM CST on January 20, 2017 (GMT -0600)
Metropolis

Weather History for KM30 - March, 2013

Change the Weather History Date:

Saturday, March 23, 2013

  Actual Average (KPAH) Record (KPAH)
Temperature  
Mean Temperature 47 °F -  
Max Temperature 55 °F 60 °F 81 °F (1987)
Min Temperature 39 °F 37 °F 19 °F (1960)
Degree Days  
Heating Degree Days 18    
Moisture  
Dew Point 31 °F    
Average Humidity 56    
Maximum Humidity 97    
Minimum Humidity 41    
Precipitation  
Precipitation 0.06 in - - ()
Sea Level Pressure  
Sea Level Pressure 29.90 in    
Wind  
Wind Speed 5 mph (NE)    
Max Wind Speed 12 mph    
Max Gust Speed 21 mph    
Visibility 10 miles    
Events Rain    
Averages and records for this station are not official NWS values.
T = Trace of Precipitation, MM = Missing Value Source: NWS Daily Summary

Daily Weather History Graph

Daily Weather History Graph

Search for Another Location

Airport or City:

Trip Planner

Search our weather history database for the weather conditions in past years. The results will help you decide how hot, cold, wet, or windy it might be!

Date:

Astronomy

Mar. 23, 2013 Rise Set
Actual Time 6:53 AM CDT 7:09 PM CDT
Civil Twilight 6:27 AM CDT 7:35 PM CDT
Nautical Twilight 5:57 AM CDT 8:06 PM CDT
Astronomical Twilight 5:26 AM CDT 8:37 PM CDT
Moon 3:40 PM CDT (3/23) 4:25 AM CDT (3/23)
Length of Visible Light 13h 08m
Length of Day
12h 16m
Waxing Gibbous, 85% of the Moon is Illuminated
Mar 23
Waxing Gibbous
Mar 27
Full
Apr 2
Last Quarter
Apr 10
New
Apr 18
First Quarter

Hourly Weather History & Observations

Time (CDT) Temp. Windchill Dew Point Humidity Pressure Visibility Wind Dir Wind Speed Gust Speed Precip Events Conditions
12:15 AM 40.5 °F 37.3 °F 26.1 °F 57% 29.99 in 10.0 mi East 4.6 mph - N/A   Overcast
12:55 AM 40.3 °F 38.2 °F 27.3 °F 60% 29.99 in 10.0 mi NNE 3.5 mph - N/A   Overcast
1:15 AM 40.3 °F 38.2 °F 26.6 °F 58% 29.99 in 10.0 mi NNE 3.5 mph - N/A   Overcast
1:35 AM 40.1 °F 36.9 °F 26.8 °F 59% 29.98 in 10.0 mi NNE 4.6 mph - N/A   Overcast
1:55 AM 40.1 °F 36.1 °F 26.2 °F 58% 29.98 in 10.0 mi NNE 5.8 mph - N/A   Overcast
2:15 AM 40.1 °F 36.1 °F 26.2 °F 58% 29.97 in 10.0 mi NE 5.8 mph - N/A   Overcast
2:35 AM 40.1 °F 36.9 °F 26.4 °F 58% 29.96 in 10.0 mi NE 4.6 mph - N/A   Overcast
3:15 AM 39.9 °F 36.7 °F 26.2 °F 58% 29.96 in 10.0 mi NE 4.6 mph - N/A   Overcast
3:35 AM 40.1 °F 38.0 °F 26.2 °F 58% 29.96 in 10.0 mi NE 3.5 mph - N/A   Overcast
3:55 AM 39.9 °F 37.8 °F 26.6 °F 59% 29.96 in 10.0 mi NE 3.5 mph - N/A   Overcast
4:15 AM 40.1 °F - 26.6 °F 59% 29.96 in 10.0 mi Calm Calm - N/A   Overcast
4:35 AM 40.1 °F 36.9 °F 26.4 °F 58% 29.95 in 10.0 mi ENE 4.6 mph - N/A   Overcast
4:55 AM 40.1 °F 36.9 °F 25.9 °F 57% 29.95 in 10.0 mi NE 4.6 mph - N/A   Overcast
5:15 AM 40.1 °F 36.9 °F 26.1 °F 57% 29.96 in 10.0 mi NE 4.6 mph - N/A   Overcast
5:35 AM 40.1 °F 36.9 °F 25.9 °F 57% 29.97 in 10.0 mi NE 4.6 mph - N/A   Overcast
5:55 AM 40.1 °F 38.0 °F 26.2 °F 58% 29.97 in 10.0 mi NE 3.5 mph - N/A   Overcast
6:35 AM 40.1 °F 36.9 °F 25.5 °F 56% 29.98 in 10.0 mi NE 4.6 mph - N/A   Overcast
6:55 AM 40.3 °F 38.2 °F 24.8 °F 54% 29.99 in 10.0 mi NE 3.5 mph - N/A   Overcast
7:15 AM 40.5 °F 37.3 °F 24.6 °F 53% 29.99 in 10.0 mi ENE 4.6 mph - N/A   Overcast
7:55 AM 41.0 °F 38.0 °F 24.6 °F 52% 29.99 in 10.0 mi ENE 4.6 mph - N/A   Overcast
8:15 AM 41.5 °F 37.1 °F 24.8 °F 51% 29.99 in 10.0 mi ENE 6.9 mph - N/A   Overcast
8:35 AM 41.9 °F 37.5 °F 25.3 °F 52% 29.99 in 10.0 mi NE 6.9 mph - N/A   Overcast
8:55 AM 42.3 °F 38.6 °F 25.5 °F 52% 29.99 in 10.0 mi NE 5.8 mph - N/A   Overcast
9:15 AM 42.8 °F 39.3 °F 25.2 °F 50% 29.99 in 10.0 mi ENE 5.8 mph - N/A   Overcast
9:35 AM 43.9 °F 39.9 °F 25.0 °F 47% 29.99 in 10.0 mi ENE 6.9 mph - N/A   Overcast
9:55 AM 45.7 °F 42.0 °F 26.1 °F 46% 29.99 in 10.0 mi ENE 6.9 mph - N/A   Overcast
10:15 AM 48.4 °F - 26.6 °F 43% 29.98 in 10.0 mi NE 8.1 mph - N/A   Mostly Cloudy
10:35 AM 49.1 °F - 26.2 °F 41% 29.99 in 10.0 mi ENE 5.8 mph - N/A   Scattered Clouds
10:55 AM 50.7 °F - 28.4 °F 42% 29.99 in 10.0 mi ENE 6.9 mph - N/A   Clear
11:15 AM 50.0 °F - 28.4 °F 43% 29.98 in 10.0 mi NE 6.9 mph - N/A   Clear
11:35 AM 50.0 °F - 28.0 °F 43% 29.98 in 10.0 mi NE 9.2 mph - N/A   Mostly Cloudy
11:55 AM 50.9 °F - 29.5 °F 44% 29.97 in 10.0 mi NNE 9.2 mph - N/A   Overcast
12:15 PM 51.6 °F - 29.3 °F 42% 29.97 in 10.0 mi ENE 5.8 mph - N/A   Overcast
12:35 PM 52.3 °F - 30.7 °F 44% 29.97 in 10.0 mi East 8.1 mph - N/A   Overcast
12:55 PM 52.5 °F - 31.5 °F 45% 29.96 in 10.0 mi East 8.1 mph - N/A   Overcast
1:15 PM 53.4 °F - 32.0 °F 44% 29.94 in 10.0 mi ENE 6.9 mph - N/A   Overcast
1:35 PM 53.6 °F - 32.4 °F 44% 29.93 in 10.0 mi ENE 6.9 mph - N/A   Overcast
1:55 PM 53.4 °F - 32.4 °F 45% 29.92 in 10.0 mi ENE 6.9 mph - N/A   Overcast
2:15 PM 54.3 °F - 32.4 °F 43% 29.91 in 10.0 mi East 11.5 mph 16.1 mph N/A   Overcast
2:35 PM 55.0 °F - 32.0 °F 42% 29.90 in 10.0 mi East 9.2 mph - N/A   Overcast
2:55 PM 55.0 °F - 32.9 °F 43% 29.89 in 10.0 mi East 8.1 mph - N/A   Overcast
3:15 PM 55.2 °F - 32.7 °F 43% 29.88 in 10.0 mi ENE 8.1 mph - N/A   Overcast
3:35 PM 54.9 °F - 32.9 °F 43% 29.87 in 10.0 mi NE 9.2 mph - N/A   Overcast
3:55 PM 54.5 °F - 32.7 °F 44% 29.86 in 10.0 mi NE 8.1 mph - N/A   Overcast
4:15 PM 54.7 °F - 33.1 °F 44% 29.86 in 10.0 mi NE 10.4 mph - N/A   Overcast
4:35 PM 54.5 °F - 32.7 °F 44% 29.84 in 10.0 mi NE 10.4 mph 16.1 mph N/A   Mostly Cloudy
4:55 PM 54.7 °F - 33.3 °F 44% 29.83 in 10.0 mi ENE 10.4 mph - N/A   Overcast
5:15 PM 54.5 °F - 32.5 °F 43% 29.82 in 10.0 mi ENE 11.5 mph 20.7 mph N/A   Mostly Cloudy
5:35 PM 54.1 °F - 32.0 °F 43% 29.82 in 10.0 mi ENE 9.2 mph 18.4 mph N/A   Scattered Clouds
5:55 PM 53.8 °F - 32.2 °F 44% 29.82 in 10.0 mi ENE 11.5 mph 16.1 mph N/A   Mostly Cloudy
6:15 PM 53.6 °F - 32.5 °F 45% 29.81 in 10.0 mi ENE 6.9 mph - N/A   Overcast
6:35 PM 53.6 °F - 32.7 °F 45% 29.82 in 10.0 mi ENE 9.2 mph - N/A   Overcast
6:55 PM 52.7 °F - 34.3 °F 50% 29.82 in 10.0 mi NE 5.8 mph - N/A Rain Rain
7:15 PM 50.0 °F - 37.8 °F 63% 29.80 in 10.0 mi NE 5.8 mph - 0.01 in Rain Light Rain
7:35 PM 49.3 °F - 38.3 °F 66% 29.79 in 10.0 mi NE 5.8 mph - 0.01 in   Light Drizzle
7:55 PM 49.3 °F - 38.5 °F 66% 29.78 in 10.0 mi ENE 6.9 mph - 0.01 in   Light Drizzle
8:15 PM 49.5 °F - 38.3 °F 65% 29.78 in 10.0 mi NE 4.6 mph - N/A   Overcast
8:35 PM 49.1 °F - 39.0 °F 68% 29.78 in 10.0 mi East 5.8 mph - N/A   Overcast
8:55 PM 48.9 °F - 39.2 °F 69% 29.76 in 10.0 mi ENE 4.6 mph - N/A   Overcast
9:15 PM 48.2 °F - 39.6 °F 72% 29.76 in 10.0 mi North 3.5 mph - N/A Rain Light Rain
9:35 PM 47.5 °F - 40.3 °F 76% 29.77 in 10.0 mi NNE 5.8 mph - N/A Rain Light Rain
9:55 PM 47.8 °F - 39.9 °F 74% 29.77 in 10.0 mi Calm Calm - 0.01 in Rain Light Rain
10:15 PM 47.3 °F - 40.5 °F 77% 29.77 in 7.0 mi Calm Calm - 0.01 in Rain Rain
10:35 PM 46.4 °F 45.2 °F 42.1 °F 85% 29.78 in 10.0 mi WNW 3.5 mph - 0.03 in Rain Light Rain
10:55 PM 45.5 °F - 44.6 °F 97% 29.77 in 7.0 mi Calm Calm - 0.04 in Rain Light Rain
11:15 PM 45.7 °F 43.4 °F 43.9 °F 93% 29.77 in 10.0 mi WNW 4.6 mph - N/A   Light Drizzle
11:35 PM 45.5 °F - 44.1 °F 95% 29.77 in 10.0 mi Calm Calm - N/A   Overcast
11:55 PM 45.5 °F - 43.9 °F 94% 29.76 in 10.0 mi Calm Calm - N/A   Overcast